time_stamp(utc),avg(mph),gust(mph),direction(deg),12m_air_temp(f),sonic_u(cm/s),sonic_v(cm/s),sonic_w(cm/s),pressure,2m_air_temp(f),pyranometer(W/m^2)
"2016-12-08 00:00:21+00",5.3,6.3,,43.8,-210,87,12,1017.63,41.7,0
"2016-12-08 00:05:21+00",4.8,5.8,,43.7,-194,75,23,1017.63,41.6,0
"2016-12-08 00:10:21+00",5.1,6.1,,43.2,-216,-8,7,1017.81,41.4,0
"2016-12-08 00:15:21+00",4.9,4.9,,42.9,-210,18,6,1017.68,41.1,0
"2016-12-08 00:20:21+00",4.9,4.9,,42.9,-210,4,4,1017.79,40.9,0
"2016-12-08 00:25:21+00",4.7,4.7,,43,-200,9,8,1017.67,40.6,0
"2016-12-08 00:30:21+00",3.7,4.7,,43,-153,1,0,1017.61,40.4,0
"2016-12-08 00:35:21+00",4.1,4.1,,43,-166,-17,1,1017.71,40.2,0
"2016-12-08 00:40:21+00",4.1,4.1,,42.9,-170,30,8,1017.77,40,0
"2016-12-08 00:45:21+00",4.3,4.3,,42.9,-180,9,3,1017.62,39.9,0
"2016-12-08 00:50:21+00",4.3,4.3,,42.9,-173,59,8,1017.64,39.8,0
"2016-12-08 00:55:21+00",5.8,5.8,,42.8,-251,40,15,1017.61,40,0
"2016-12-08 01:00:21+00",5.3,5.3,,42.7,-228,44,14,1017.57,40.1,0
"2016-12-08 01:05:21+00",4.6,4.6,,42.5,-198,7,13,1017.49,40,0
"2016-12-08 01:10:21+00",4.2,5.2,,42.5,-178,-1,11,1017.54,39.8,0
"2016-12-08 01:15:21+00",5.0,5.0,,42.5,-211,-16,10,1017.42,39.6,0
"2016-12-08 01:20:21+00",5.3,5.3,,42.6,-228,-22,13,1017.56,39.8,0
"2016-12-08 01:25:21+00",4.4,4.4,,42.5,-184,-25,5,1017.45,39.8,0
"2016-12-08 01:30:21+00",4.5,4.5,,42.5,-188,-22,6,1017.47,39.7,0
"2016-12-08 01:35:21+00",4.9,4.9,,42.4,-207,-21,6,1017.36,39.6,0
"2016-12-08 01:40:21+00",5.2,5.2,,42.4,-215,-39,2,1017.49,39.5,0
"2016-12-08 01:45:21+00",5.2,5.2,,42.4,-210,-74,8,1017.45,39.3,0
"2016-12-08 01:50:21+00",5.5,6.5,,42.3,-228,-41,3,1017.45,39.2,0
"2016-12-08 01:55:21+00",6.6,6.6,,42.3,-263,-66,14,1017.6,39.1,0
"2016-12-08 02:00:21+00",5.9,5.9,,42.3,-247,-41,8,1017.45,39.3,0
"2016-12-08 02:05:21+00",5.0,5.0,,42.2,-205,-32,3,1017.33,39.4,0
"2016-12-08 02:10:21+00",6.7,6.7,,41.9,-287,-26,9,1017.47,39.4,0
"2016-12-08 02:15:21+00",7.0,7.0,,42.1,-296,-50,16,1017.31,39.5,0
"2016-12-08 02:20:21+00",6.1,6.1,,42.1,-259,-30,12,1017.41,39.4,0
"2016-12-08 02:25:21+00",6.1,6.1,,42,-262,-17,14,1017.41,39.5,0
"2016-12-08 02:30:21+00",7.3,8.3,,41.9,-305,-51,13,1017.5,39.5,0
"2016-12-08 02:35:21+00",7.3,8.3,,41.9,-316,-13,15,1017.41,39.5,0
"2016-12-08 02:40:21+00",8.0,8.0,,41.9,-342,-27,15,1017.39,39.4,0
"2016-12-08 02:45:21+00",8.3,8.3,,41.8,-357,-27,10,1017.41,39.3,0
"2016-12-08 02:50:21+00",8.3,9.3,,41.7,-362,-1,14,1017.31,39.3,0
"2016-12-08 02:55:21+00",7.5,8.5,,41.7,-330,7,13,1017.27,39.2,0
"2016-12-08 03:00:21+00",7.2,8.2,,41.6,-317,6,13,1017.33,39.3,0
"2016-12-08 03:05:21+00",6.8,6.8,,41.5,-296,36,14,1017.39,39.2,0
"2016-12-08 03:10:21+00",6.0,7.0,,41.7,-257,48,14,1017.37,39.3,0
"2016-12-08 03:15:21+00",4.9,5.9,,41.6,-205,42,7,1017.44,39.4,0
"2016-12-08 03:20:21+00",4.8,5.8,,41.6,-198,55,8,1017.54,39.4,0
"2016-12-08 03:25:21+00",4.9,5.9,,41.6,-202,67,12,1017.46,39.3,0
"2016-12-08 03:30:21+00",7.1,8.1,,41.6,-308,61,16,1017.54,39.6,0
"2016-12-08 03:35:21+00",6.7,7.7,,41.5,-283,68,12,1017.47,39.8,0
"2016-12-08 03:40:21+00",6.2,7.2,,41.2,-273,47,16,1017.52,39.9,0
"2016-12-08 03:45:21+00",6.0,7.0,,41,-259,-14,17,1017.53,39.8,0
"2016-12-08 03:50:21+00",6.0,7.0,,40.7,-260,38,16,1017.63,39.4,0
"2016-12-08 03:55:21+00",6.5,7.5,,40.6,-279,50,17,1017.71,39.3,0
"2016-12-08 04:00:21+00",5.9,6.9,,40.6,-259,23,15,1017.62,39.3,0
"2016-12-08 04:05:21+00",6.4,7.4,,40.5,-277,50,17,1017.51,39.2,0
"2016-12-08 04:10:21+00",5.6,6.6,,40.5,-242,37,16,1017.38,39.2,0
"2016-12-08 04:15:21+00",5.9,6.9,,40.3,-252,34,11,1017.35,38.9,0
"2016-12-08 04:20:21+00",6.0,7.0,,40.3,-259,44,12,1017.29,38.8,0
"2016-12-08 04:25:21+00",6.1,7.1,,40.3,-265,30,14,1017.21,38.7,0
"2016-12-08 04:30:21+00",7.2,8.2,,40.3,-309,75,15,1017.23,38.6,0
"2016-12-08 04:35:21+00",7.6,7.6,,40.4,-319,90,27,1017.17,38.9,0
"2016-12-08 04:40:21+00",7.3,8.3,,40.4,-303,75,24,1017.09,39.2,0
"2016-12-08 04:45:21+00",6.1,7.1,,40.3,-265,68,30,1017.05,39.3,0
"2016-12-08 04:50:21+00",7.3,8.3,,40.3,-314,78,36,1017.1,39.3,0
"2016-12-08 04:55:21+00",8.0,9.0,,40.4,-342,98,26,1016.96,39.3,0
"2016-12-08 05:00:21+00",6.9,7.9,,40.4,-294,60,27,1016.85,39.3,0
"2016-12-08 05:05:21+00",7.1,8.1,,40.3,-308,60,21,1016.82,39.3,0
"2016-12-08 05:10:21+00",6.4,8.4,,40.1,-275,77,33,1016.84,39.3,0
"2016-12-08 05:15:21+00",7.7,8.7,,39.8,-338,59,21,1016.82,39.1,0
"2016-12-08 05:20:21+00",7.0,7.0,,39.5,-305,-8,13,1016.79,38.7,0
"2016-12-08 05:25:21+00",7.4,8.4,,39.2,-327,7,12,1016.78,38.4,0
"2016-12-08 05:30:21+00",8.2,9.2,,39.1,-355,41,14,1016.72,38.2,0
"2016-12-08 05:35:21+00",6.8,6.8,,39.2,-294,33,13,1016.56,38.1,0
"2016-12-08 05:40:21+00",6.3,7.3,,39.2,-272,9,11,1016.6,38,0
"2016-12-08 05:45:21+00",6.9,7.9,,39.2,-306,50,22,1016.49,37.9,0
"2016-12-08 05:50:21+00",7.6,8.6,,39.1,-330,23,14,1016.61,38,0
"2016-12-08 05:55:21+00",8.3,9.3,,39.2,-365,36,23,1016.66,37.9,0
"2016-12-08 06:00:21+00",7.4,8.4,,39.2,-324,9,14,1016.57,37.9,0
"2016-12-08 06:05:21+00",7.1,7.1,,39,-306,-3,14,1016.57,37.8,0
"2016-12-08 06:10:21+00",7.4,8.4,,39.1,-323,14,15,1016.59,37.6,0
"2016-12-08 06:15:21+00",8.0,9.0,,39.1,-352,13,17,1016.75,37.6,0
"2016-12-08 06:20:21+00",8.0,9.0,,39,-350,-7,13,1016.84,37.6,0
"2016-12-08 06:25:21+00",8.7,9.7,,39.1,-385,32,21,1016.73,37.6,0
"2016-12-08 06:30:21+00",7.5,7.5,,39.2,-325,-14,13,1016.74,37.7,0
"2016-12-08 06:35:21+00",7.5,7.5,,39.1,-330,-1,12,1016.62,37.7,0
"2016-12-08 06:40:21+00",7.6,7.6,,39.2,-329,-8,12,1016.7,37.8,0
"2016-12-08 06:45:21+00",7.6,8.6,,39.4,-335,6,11,1016.56,37.9,0
"2016-12-08 06:50:21+00",7.8,8.8,,39.6,-341,40,17,1016.49,38.1,0
"2016-12-08 06:55:21+00",7.9,8.9,,39.8,-345,31,16,1016.67,38.3,0
"2016-12-08 07:00:21+00",7.7,8.7,,39.9,-329,64,18,1016.68,38.4,0
"2016-12-08 07:05:21+00",7.6,9.6,,40,-335,44,11,1016.62,38.5,0
"2016-12-08 07:10:21+00",6.5,7.5,,40.1,-283,57,12,1016.67,38.8,0
"2016-12-08 07:15:21+00",7.9,8.9,,40,-345,38,15,1016.63,38.9,0
"2016-12-08 07:20:21+00",7.8,8.8,,39.7,-343,18,14,1016.6,38.7,0
"2016-12-08 07:25:21+00",8.1,8.1,,39.6,-358,32,18,1016.58,38.5,0
"2016-12-08 07:30:21+00",8.3,9.3,,39.6,-365,8,15,1016.67,38.4,0
"2016-12-08 07:35:21+00",7.5,7.5,,39.4,-329,11,13,1016.68,38.4,0
"2016-12-08 07:40:21+00",7.3,8.3,,39.4,-320,33,17,1016.77,38.4,0
"2016-12-08 07:45:21+00",7.3,8.3,,39.4,-322,6,14,1016.9,38.3,0
"2016-12-08 07:50:21+00",6.6,6.6,,39.2,-283,-19,13,1016.75,38.2,0
"2016-12-08 07:55:21+00",6.4,7.4,,39,-269,-18,7,1016.7,38,0
"2016-12-08 08:00:21+00",6.0,7.0,,38.7,-257,4,16,1016.67,37.8,0
"2016-12-08 08:05:21+00",7.3,8.3,,39.1,-312,41,13,1016.7,37.7,0
"2016-12-08 08:10:21+00",6.6,7.6,,39,-280,23,13,1016.6,37.7,0
"2016-12-08 08:15:21+00",6.8,7.8,,38.9,-293,35,7,1016.48,37.6,0
"2016-12-08 08:20:21+00",6.3,7.3,,38.7,-273,22,14,1016.5,37.5,0
"2016-12-08 08:25:21+00",6.6,7.6,,38.5,-289,2,11,1016.52,37.5,0
"2016-12-08 08:30:21+00",7.1,7.1,,38.5,-310,6,13,1016.51,37.5,0
"2016-12-08 08:35:21+00",8.4,8.4,,38.6,-370,31,18,1016.45,37.5,0
"2016-12-08 08:40:21+00",8.7,9.7,,38.7,-384,20,13,1016.51,37.5,0
"2016-12-08 08:45:21+00",8.5,9.5,,38.6,-370,9,13,1016.45,37.5,0
"2016-12-08 08:50:21+00",8.2,9.2,,38.7,-357,-12,10,1016.43,37.5,0
"2016-12-08 08:55:21+00",8.2,9.2,,38.8,-362,9,18,1016.33,37.6,0
"2016-12-08 09:00:21+00",9.6,10.6,,38.9,-423,13,10,1016.28,37.7,0
"2016-12-08 09:05:21+00",9.0,11.0,,38.9,-392,-1,11,1016.26,37.8,0
"2016-12-08 09:10:21+00",9.0,10.0,,38.6,-379,-19,22,1016.34,37.8,0
"2016-12-08 09:15:21+00",9.0,10.0,,38.5,-390,0,16,1016.33,37.8,0
"2016-12-08 09:20:21+00",9.0,11.0,,38.6,-390,-3,13,1016.24,37.8,0
"2016-12-08 09:25:21+00",9.1,10.1,,38.6,-392,-31,10,1016.14,37.9,0
"2016-12-08 09:30:21+00",9.1,10.1,,38.6,-397,-18,10,1016.25,37.8,0
"2016-12-08 09:35:21+00",9.7,10.7,,38.7,-425,-20,12,1016.25,37.9,0
"2016-12-08 09:40:21+00",9.6,10.6,,38.7,-419,-1,17,1016.25,37.9,0
"2016-12-08 09:45:21+00",9.0,10.0,,38.6,-398,25,19,1016.19,37.9,0
"2016-12-08 09:50:21+00",9.9,10.9,,38.6,-434,65,30,1016.26,38,0
"2016-12-08 09:55:21+00",10.0,11.0,,38.4,-438,54,29,1016.32,38.1,0
"2016-12-08 10:00:21+00",9.5,10.5,,38.3,-421,34,29,1016.37,37.9,0
"2016-12-08 10:05:21+00",8.3,9.3,,38.2,-368,57,29,1016.25,37.9,0
"2016-12-08 10:10:21+00",10.1,11.1,,38.5,-444,76,31,1016.19,38,0
"2016-12-08 10:15:21+00",10.7,12.7,,38.7,-467,129,36,1016.34,38.2,0
"2016-12-08 10:20:21+00",11.3,12.3,,38.5,-483,139,38,1016.27,38.3,0
"2016-12-08 10:25:21+00",11.8,12.8,,38.4,-510,155,33,1016.27,38.3,0
"2016-12-08 10:30:21+00",11.6,13.6,,38.2,-495,159,35,1016.26,38.1,0
"2016-12-08 10:35:21+00",11.7,12.7,,37.9,-495,170,47,1016.21,37.8,0
"2016-12-08 10:40:21+00",10.5,11.5,,37.6,-444,176,26,1016.3,37.6,0
"2016-12-08 10:45:21+00",9.2,10.2,,37.4,-377,186,21,1016.2,37.3,0
"2016-12-08 10:50:21+00",9.7,10.7,,37.5,-404,160,32,1016.34,37.1,0
"2016-12-08 10:55:21+00",10.9,11.9,,37.5,-453,188,25,1016.4,37,0
"2016-12-08 11:00:21+00",11.3,13.3,,37.5,-460,191,33,1016.37,37,0
"2016-12-08 11:05:21+00",11.0,12.0,,37.5,-451,210,23,1016.27,36.9,0
"2016-12-08 11:10:21+00",11.0,12.0,,37.6,-452,202,33,1016.35,36.9,0
"2016-12-08 11:15:21+00",10.0,11.0,,37.6,-398,200,24,1016.38,37,0
"2016-12-08 11:20:21+00",8.0,9.0,,37.7,-300,198,22,1016.38,36.9,0
"2016-12-08 11:25:21+00",8.8,9.8,,37.5,-290,254,25,1016.21,36.9,0
"2016-12-08 11:30:21+00",8.2,9.2,,37.1,-273,226,22,1016.3,36.8,0
"2016-12-08 11:35:21+00",7.6,8.6,,36.7,-269,202,17,1016.32,36.6,0
"2016-12-08 11:40:21+00",7.3,9.3,,36.9,-273,180,41,1016.44,36.4,0
"2016-12-08 11:45:21+00",8.1,9.1,,36.9,-307,188,23,1016.35,36.4,0
"2016-12-08 11:50:21+00",7.5,9.5,,36.9,-284,179,22,1016.37,36.4,0
"2016-12-08 11:55:21+00",8.1,9.1,,37,-304,190,18,1016.44,36.5,0
"2016-12-08 12:00:21+00",7.9,9.9,,37.3,-293,187,31,1016.43,36.6,0
"2016-12-08 12:05:21+00",9.4,11.4,,37.3,-341,233,25,1016.44,36.7,0
"2016-12-08 12:10:21+00",10.8,11.8,,37.2,-401,265,14,1016.52,36.8,0
"2016-12-08 12:15:21+00",9.4,10.4,,37.1,-328,265,30,1016.47,36.8,0
"2016-12-08 12:20:21+00",8.8,9.8,,37,-303,241,33,1016.29,36.8,0
"2016-12-08 12:25:21+00",8.1,9.1,,36.9,-306,203,40,1016.13,36.8,0
"2016-12-08 12:30:21+00",8.5,9.5,,37,-310,225,24,1016.09,36.7,0
"2016-12-08 12:35:21+00",9.4,10.4,,37,-373,174,17,1016.3,36.7,0
"2016-12-08 12:40:21+00",10.4,11.4,,37.2,-437,151,22,1016.49,36.9,0
"2016-12-08 12:45:21+00",9.5,11.5,,37.4,-401,134,31,1016.33,37.2,0
"2016-12-08 12:50:21+00",8.9,10.9,,37.7,-360,169,25,1016.5,37.4,0
"2016-12-08 12:55:21+00",9.1,11.1,,37.9,-358,198,36,1016.35,37.5,0
"2016-12-08 13:00:21+00",8.7,10.7,,38.1,-317,212,31,1016.39,37.6,0
"2016-12-08 13:05:21+00",7.7,8.7,,38.2,-258,218,29,1016.09,37.8,0.6
"2016-12-08 13:10:21+00",7.7,8.7,,38,-288,183,22,1016.05,37.8,10.8
"2016-12-08 13:15:21+00",8.4,9.4,,38,-331,163,18,1016.16,38,20.7
"2016-12-08 13:20:21+00",9.7,10.7,,38.1,-394,157,23,1016.33,38.2,22.1
"2016-12-08 13:25:21+00",8.0,9.0,,38.2,-316,155,24,1016.2,38.5,11.6
"2016-12-08 13:30:21+00",7.2,8.2,,38.4,-280,133,21,1016.08,38.6,7
"2016-12-08 13:35:21+00",7.1,8.1,,38.6,-293,112,22,1016,38.7,4.4
"2016-12-08 13:40:21+00",5.1,6.1,,38.7,-205,100,28,1015.87,38.9,13.9
"2016-12-08 13:45:21+00",5.0,6.0,,38.8,-201,78,23,1015.82,39.1,22.4
"2016-12-08 13:50:21+00",6.2,7.2,,38.8,-260,75,27,1015.77,39.2,42.8
"2016-12-08 13:55:21+00",6.7,7.7,,38.9,-282,85,37,1015.91,39.4,25.9
"2016-12-08 14:00:21+00",7.2,8.2,,39,-309,76,34,1016.05,39.5,17.6
"2016-12-08 14:05:21+00",7.1,8.1,,38.9,-299,104,16,1015.93,39.5,8.7
"2016-12-08 14:10:21+00",6.5,7.5,,39,-277,59,39,1016.14,39.5,15.7
"2016-12-08 14:15:21+00",8.2,9.2,,39.1,-353,87,27,1016.13,39.6,13.3
"2016-12-08 14:20:21+00",8.9,9.9,,39,-376,117,27,1016.33,39.5,8.3
"2016-12-08 14:25:21+00",8.7,10.7,,39,-380,107,42,1016.36,39.5,4.7
"2016-12-08 14:30:21+00",9.7,11.7,,39.1,-421,130,25,1016.41,39.5,5
"2016-12-08 14:35:21+00",10.2,12.2,,39.3,-451,78,41,1016.47,39.6,1.5
"2016-12-08 14:40:21+00",10.8,12.8,,39.4,-477,96,52,1016.57,39.7,10.4
"2016-12-08 14:45:21+00",12.5,14.5,,39.4,-549,103,45,1016.56,39.8,20.5
"2016-12-08 14:50:21+00",12.7,13.7,,39.3,-554,126,34,1016.63,39.8,15.8
"2016-12-08 14:55:21+00",12.6,13.6,,39.4,-556,117,35,1016.49,39.9,43.5
"2016-12-08 15:00:21+00",12.7,14.7,,39.6,-557,109,32,1016.53,40,51.9
"2016-12-08 15:05:21+00",10.4,11.4,,39.7,-465,71,56,1016.61,40.1,7.3
"2016-12-08 15:10:21+00",12.4,14.4,,39.6,-549,85,33,1016.43,40.1,1.8
"2016-12-08 15:15:21+00",11.0,14.0,,39.6,-489,54,40,1016.44,39.9,0.1
"2016-12-08 15:20:21+00",11.0,13.0,,39.6,-473,-25,25,1016.46,39.9,0
"2016-12-08 15:25:21+00",12.3,14.3,,39.9,-545,56,24,1016.55,39.9,0
"2016-12-08 15:30:21+00",13.6,15.6,,40,-600,-15,36,1016.42,40.1,0
"2016-12-08 15:35:21+00",12.0,14.0,,40.1,-516,-58,14,1016.32,40.1,0
"2016-12-08 15:40:21+00",12.6,14.6,,40.1,-544,-62,4,1016.23,40.1,0
"2016-12-08 15:45:21+00",9.5,10.5,,40.1,-420,-9,23,1015.94,40.2,0
"2016-12-08 15:50:21+00",10.5,12.5,,40.2,-457,-46,19,1015.78,40.2,0
"2016-12-08 15:55:21+00",10.5,12.5,,40.3,-436,-109,13,1015.58,40.2,0
"2016-12-08 16:00:21+00",10.2,11.2,,40.4,-428,-85,19,1015.58,40.3,0
"2016-12-08 16:05:21+00",9.2,10.2,,40.3,-384,-86,20,1015.36,40.4,0
"2016-12-08 16:10:21+00",11.6,12.6,,40.3,-495,-64,32,1015.4,40.3,0.7
"2016-12-08 16:15:21+00",9.5,11.5,,40.3,-409,-47,29,1015.34,40.4,0
"2016-12-08 16:20:21+00",10.1,12.1,,40.4,-442,-36,16,1015.06,40.4,0
"2016-12-08 16:25:21+00",11.0,12.0,,40.6,-479,-60,5,1015,40.5,1.1
"2016-12-08 16:30:21+00",9.4,10.4,,40.7,-407,-32,36,1014.89,40.7,7.4
"2016-12-08 16:35:21+00",10.7,11.7,,40.9,-459,-42,23,1014.82,40.8,6.8
"2016-12-08 16:40:21+00",10.9,12.9,,40.9,-474,-27,27,1014.83,41,10.9
"2016-12-08 16:45:21+00",10.6,12.6,,40.9,-470,4,27,1014.78,41,7.1
"2016-12-08 16:50:21+00",12.3,14.3,,41,-542,15,20,1014.7,41.1,8.6
"2016-12-08 16:55:21+00",10.2,13.2,,41.1,-450,-13,22,1014.49,41.2,3.6
"2016-12-08 17:00:21+00",10.1,12.1,,41.3,-443,0,45,1014.4,41.3,1.1
"2016-12-08 17:05:21+00",10.1,12.1,,41.2,-442,4,41,1014.25,41.4,2.1
"2016-12-08 17:10:21+00",10.1,12.1,,41.2,-442,-3,15,1014.04,41.4,0.4
"2016-12-08 17:15:21+00",10.1,12.1,,41.2,-443,-1,26,1013.89,41.3,1.5
"2016-12-08 17:20:21+00",8.3,10.3,,41.2,-354,-36,39,1013.81,41.4,0.2
"2016-12-08 17:25:21+00",12.2,14.2,,41.2,-509,-107,14,1013.75,41.4,4.9
"2016-12-08 17:30:21+00",12.3,13.3,,41.1,-525,-88,15,1013.77,41.3,6.6
"2016-12-08 17:35:21+00",9.9,10.9,,41.1,-431,-48,16,1013.59,41.3,1.6
"2016-12-08 17:40:21+00",10.8,12.8,,41.2,-465,-34,26,1013.51,41.4,1
"2016-12-08 17:45:21+00",11.3,13.3,,41.2,-480,-87,10,1013.35,41.4,3.8
"2016-12-08 17:50:21+00",10.9,13.9,,41.4,-457,-128,31,1013.39,41.4,6.9
"2016-12-08 17:55:21+00",12.5,13.5,,41.4,-534,-112,20,1013.44,41.5,1.2
"2016-12-08 18:00:21+00",11.3,14.3,,41.3,-484,-87,41,1013.45,41.5,0.7
"2016-12-08 18:05:21+00",12.5,14.5,,41.4,-528,-156,15,1013.24,41.5,1.6
"2016-12-08 18:10:21+00",12.3,14.3,,41.4,-518,-166,20,1013.11,41.5,0.3
"2016-12-08 18:15:21+00",11.0,14.0,,41.4,-464,-112,34,1013.12,41.5,1.4
"2016-12-08 18:20:21+00",11.9,14.9,,41.4,-498,-133,42,1013.03,41.5,3.2
"2016-12-08 18:25:21+00",13.4,15.4,,41.4,-565,-105,19,1012.98,41.5,4.1
"2016-12-08 18:30:21+00",13.1,14.1,,41.5,-542,-120,21,1013.2,41.6,1
"2016-12-08 18:35:21+00",12.8,14.8,,41.6,-548,-92,38,1013.22,41.6,8
"2016-12-08 18:40:21+00",11.9,14.9,,41.6,-498,-126,33,1013.12,41.7,11.9
"2016-12-08 18:45:21+00",13.2,16.2,,41.6,-562,-67,16,1013.02,41.8,9.2
"2016-12-08 18:50:21+00",13.8,15.8,,41.8,-593,-145,49,1013.01,41.8,5.6
"2016-12-08 18:55:21+00",15.4,17.4,,41.9,-659,-86,20,1012.96,41.9,4.3
"2016-12-08 19:00:21+00",14.8,16.8,,42,-638,-78,27,1013.02,42,8
"2016-12-08 19:05:21+00",14.1,17.1,,42.1,-592,-88,34,1012.93,42.1,8.3
"2016-12-08 19:10:21+00",16.0,19.0,,42.2,-684,-99,21,1012.88,42.2,16.3
"2016-12-08 19:15:21+00",17.2,19.2,,42.4,-727,-131,21,1012.89,42.3,19.7
"2016-12-08 19:20:21+00",13.6,17.6,,42.4,-577,-97,63,1013.06,42.5,23.8
"2016-12-08 19:25:21+00",14.6,16.6,,42.5,-615,-113,23,1012.89,42.6,18.3
"2016-12-08 19:30:21+00",14.6,16.6,,42.5,-634,-63,18,1012.86,42.6,19.5
"2016-12-08 19:35:21+00",15.6,17.6,,42.6,-660,-134,20,1013.05,42.7,10.5
"2016-12-08 19:40:21+00",17.3,19.3,,42.7,-733,-128,10,1013.14,42.7,11.7
"2016-12-08 19:45:21+00",14.3,17.3,,42.8,-611,-86,30,1013.13,42.8,14.8
"2016-12-08 19:50:21+00",16.6,19.6,,42.9,-717,-149,41,1013.17,42.9,14.6
"2016-12-08 19:55:21+00",17.1,19.1,,43,-732,-114,23,1013.18,42.9,11
"2016-12-08 20:00:21+00",16.3,17.3,,43,-703,-72,29,1013.29,43,4.2
"2016-12-08 20:05:21+00",16.7,18.7,,43,-749,-36,51,1013.27,42.9,0.4
"2016-12-08 20:10:21+00",16.4,18.4,,43,-706,-46,11,1013.25,42.9,0.7
"2016-12-08 20:15:21+00",14.0,16.0,,43,-614,-37,47,1013.34,42.9,0.1
"2016-12-08 20:20:21+00",12.1,15.1,,42.9,-515,-54,35,1013.32,42.8,0.4
"2016-12-08 20:25:21+00",15.8,17.8,,42.9,-688,-57,22,1013.37,42.8,0
"2016-12-08 20:30:21+00",14.6,16.6,,42.9,-632,-32,42,1013.47,42.8,0
"2016-12-08 20:35:21+00",15.0,18.0,,42.8,-641,-86,34,1013.53,42.7,0.3
"2016-12-08 20:40:21+00",11.9,14.9,,42.8,-516,-43,64,1013.57,42.7,0.2
"2016-12-08 20:45:21+00",13.8,15.8,,42.8,-609,-29,39,1013.56,42.6,0
"2016-12-08 20:50:21+00",14.8,16.8,,42.8,-649,-11,29,1013.64,42.6,0
"2016-12-08 20:55:21+00",14.0,17.0,,42.8,-612,-17,15,1013.67,42.5,0
"2016-12-08 21:00:21+00",14.3,16.3,,42.8,-630,6,21,1013.7,42.5,0
"2016-12-08 21:05:21+00",14.7,16.7,,42.7,-644,-25,24,1013.77,42.4,0
"2016-12-08 21:10:21+00",14.7,17.7,,42.6,-645,28,28,1013.79,42.3,0
"2016-12-08 21:15:21+00",14.8,17.8,,42.6,-660,73,45,1013.86,42.3,0
"2016-12-08 21:20:21+00",13.7,15.7,,42.5,-604,0,34,1013.83,42.1,0
"2016-12-08 21:25:21+00",12.0,14.0,,42.6,-526,-53,34,1013.94,42,0
"2016-12-08 21:30:21+00",13.3,15.3,,42.6,-588,34,26,1013.98,42,0
"2016-12-08 21:35:21+00",13.1,15.1,,42.4,-579,-29,21,1014.05,41.9,0
"2016-12-08 21:40:21+00",12.8,14.8,,42.2,-573,7,27,1014.02,41.7,0
"2016-12-08 21:45:21+00",14.0,15.0,,42.1,-626,37,33,1014.11,41.5,0
"2016-12-08 21:50:21+00",15.8,17.8,,42.2,-699,103,34,1014.11,41.5,0
"2016-12-08 21:55:21+00",14.6,16.6,,42.3,-649,19,30,1014.17,41.6,0
"2016-12-08 22:00:21+00",12.7,14.7,,41.9,-561,2,11,1014.33,41.4,0
"2016-12-08 22:05:21+00",12.9,14.9,,41.7,-572,37,27,1014.34,41.2,0
"2016-12-08 22:10:21+00",14.3,16.3,,41.7,-640,50,25,1014.37,41.1,0
"2016-12-08 22:15:21+00",12.7,14.7,,41.5,-563,6,22,1014.41,40.9,0
"2016-12-08 22:20:21+00",12.0,14.0,,41.4,-525,-4,24,1014.46,40.7,0
"2016-12-08 22:25:21+00",14.2,18.2,,41.6,-616,30,19,1014.5,40.9,0
"2016-12-08 22:30:21+00",14.1,17.1,,41.6,-626,0,35,1014.56,40.9,0
"2016-12-08 22:35:21+00",15.6,18.6,,41.3,-680,145,45,1014.63,40.8,0
"2016-12-08 22:40:21+00",18.7,20.7,,42,-795,257,46,1014.75,41.2,0
"2016-12-08 22:45:21+00",19.1,23.1,,42.2,-835,253,64,1014.7,41.5,0
"2016-12-08 22:50:21+00",16.3,19.3,,42,-723,186,60,1014.78,41.6,0
"2016-12-08 22:55:21+00",16.9,18.9,,41.8,-728,220,44,1014.97,41.4,0
"2016-12-08 23:00:21+00",14.0,16.0,,41.6,-613,152,52,1015.08,41.2,0
"2016-12-08 23:05:21+00",13.7,15.7,,41.3,-589,159,34,1014.97,41,0
"2016-12-08 23:10:21+00",12.2,14.2,,40.9,-537,133,59,1015.15,40.7,0
"2016-12-08 23:15:21+00",16.3,19.3,,41.2,-705,239,58,1015.17,40.6,0
"2016-12-08 23:20:21+00",19.5,21.5,,41.4,-828,279,56,1015.22,40.7,0
"2016-12-08 23:25:21+00",16.6,19.6,,41.2,-739,146,51,1015.23,40.7,0
"2016-12-08 23:30:21+00",17.4,18.4,,41.2,-755,225,48,1015.23,40.7,0
"2016-12-08 23:35:21+00",18.3,21.3,,41,-749,309,37,1015.4,40.5,0
"2016-12-08 23:40:21+00",16.4,18.4,,41.1,-683,288,41,1015.52,40.4,0
"2016-12-08 23:45:21+00",15.7,17.7,,41,-667,271,67,1015.6,40.3,0
"2016-12-08 23:50:21+00",19.7,20.7,,41.2,-813,372,56,1015.64,40.3,0
"2016-12-08 23:55:21+00",19.4,21.4,,41.2,-788,385,50,1015.65,40.2,0
